SCP
0 0 0 -0 -0 -0 0 0 0 0 0 0 0 0 0 0 0 0 0 0 0 0 0 0 0 0 0 0 0 0 0 0 0 0 0 0 0 0 0 0 0 0 0 0 0 0 0
0 0 -0 -0 -0 -0 0 0 0 0 0 0 0 0 0 0 0 0 0 0 0 0 0 0 0 0 0 0 0 0 0 0 0 0 0 0 0 0 0 0 0 0 0 0 0 0 0
0 -0 -0 -0 -0 -0 0 0 0 0 0 0 0 0 0 0 0 0 0 0 0 0 0 0 0 0 0 0 0 0 0 -0 0 0 0 0 0 0 0 -0 0 0 0 0 0 0 0
0 -0 -0 -0 -0 -0 -0 0 0 0 0 0 0 0 0 0 0 0 0 0 0 0 0 0 0 0 0 0 0 0 0 0 0 0 0 0 0 0 0 0 0 0 0 0 0 0 0
0 -0 -0 -0 -0 -0 -0 0 0 0 0 0 0 0 0 0 0 0 0 0 0 0 0 -0 0 0 0 0 -0 0 0 0 0 0 0 0 0 0 -0 0 0 0 0 0 0 0 0
-0 -0 -0 -0 -0 -0 0 0 0 0 0 0 0 0 0 0 0 0 0 0 0 0 0 0 0 0 0 0 0 0 0 0 0 0 0 0 0 0 -0 0 0 0 0 0 0 0 0
-0 -0 -0 -0 -0 -0 0 0 0 0 0 0 0 0 0 0 0 0 0 0 0 0 0 0 0 -0 0 0 0 0 0 0 0 0 0 0 0 0 0 0 0 0 0 0 0 0 0
-0 -0 -0 -0 -0 0 0 0 0 0 0 0 0 0 0 0 0 0 0 0 0 0 -0 -0 0 0 -0 0 0 0 0 0 0 0 0 0 -0 -0 -0 0 0 0 0 0 0 0 0
-0 -0 -0 -0 -0 0 0 0 0 0 0 0 0 0 0 0 0 0 0 0 0 0 0 0 0 0 0 -0 0 0 0 0 0 0 0 0 0 0 -0 0 0 0 0 0 0 0 0
-0 -0 -0 -0 0 0 0 0 0 0 0 0 0 0 0 0 0 0 0 0 0 0 0 0 0 0 -0 -0 -0 0 0 0 0 0 0 0 0 0 0 0 0 0 0 0 0 0 0
-0 -0 0 0 0 0 0 0 0 0 0 0 0 0 0 0 0 0 -0 -0 0 0 0 0 0 0 -0 -0 0 0 0 0 0 0 0 0 0 0 -0 0 -0 0 0 0 0 0 0
0 0 0 0 0 0 0 0 0 0 0 0 0 0 0 0 0 0 -0 -0 0 0 0 0 0 0 -0 0 0 0 0 0 0 0 0 0 0 0 0 0 -0 -0 -0 -0 0 0 0
0 0 0 0 0 0 0 0 0 0 0 0 0 0 0 0 0 -0 -0 0 0 0 0 0 0 -0 -0 0 0 0 0 0 0 0 0 0 0 0 0 0 0 0 0 0 0 0 0
0 0 0 0 0 0 0 0 0 0 0 0 0 0 0 0 -0 -0 0 0 0 0 0 0 0 -0 -0 0 0 0 0 0 0 0 0 0 0 0 0 0 0 0 0 -0 0 0 0
0 0 0 0 0 0 0 0 0 0 0 0 0 0 0 0 0 0 0 0 0 0 0 0 -0 -0 -0 -0 0 0 0 0 0 0 0 0 0 0 0 0 0 0 0 0 0 0 0
0 0 0 0 0 0 0 0 0 0 0 0 0 0 0 0 0 0 0 0 0 0 0 0 0 0 0 0 0 0 0 0 0 0 0 0 0 0 0 0 0 0 0 0 0 0 0
0 0 0 0 0 0 0 0 0 0 0 0 0 0 0 0 0 0 0 0 0 0 0 0 0 0 -0 0 0 0 0 0 0 0 0 0 0 0 0 0 0 0 0 0 0 0 0
0 0 0 0 0 0 0 0 0 0 0 0 0 0 0 0 0 0 0 0 0 0 -0 0 0 -0 0 0 0 0 0 0 0 0 0 0 0 0 0 0 0 0 0 0 0 0 0
0 0 0 0 0 0 0 0 0 0 0 0 0 0 0 0 0 0 0 0 0 -0 0 0 0 -0 -0 -0 0 0 0 0 0 0 0 0 0 0 0 0 0 0 0 0 0 0 0
0 0 0 0 0 0 0 0 0 0 0 0 0 0 0 0 0 0 0 0 0 -0 0 0 0 0 0 0 0 0 0 0 0 0 0 0 0 0 0 0 0 -0 0 0 0 0 0
0 0 0 0 0 0 0 0 0 0 0 0 0 0 0 0 0 0 0 0 0 0 -0 0 0 0 0 0 0 0 0 0 0 0 0 0 0 0 0 0 0 0 0 0 0 0 0
0 0 0 0 0 0 0 0 0 0 0 0 0 0 0 0 0 0 0 0 0 0 0 -0 -0 -0 0 0 0 0 0 -0 0 0 0 0 0 0 0 0 0 0 0 0 0 0 0
0 0 0 0 0 0 0 0 0 0 0 0 0 0 0 0 0 0 0 0 0 0 0 -0 -0 -0 -0 -0 0 0 0 0 0 0 0 0 0 0 0 0 0 0 0 0 0 0 0
0 0 0 0 0 0 0 0 0 0 0 0 0 0 0 0 0 0 0 0 0 0 0 0 0 0 0 0 0 -0 0 0 0 0 0 0 0 0 0 0 0 0 0 0 0 0 0
0 0 0 0 0 0 0 0 0 0 0 0 0 0 0 0 0 0 0 0 0 0 -0 -0 0 0 0 0 -0 0 0 0 0 0 0 0 0 0 0 0 0 0 0 0 0 0 0
0 0 0 0 0 0 0 0 0 0 0 0 0 0 0 0 0 0 0 0 -0 -0 -0 0 0 0 0 0 -0 0 0 0 0 0 0 0 0 0 0 0 0 0 0 0 0 0 0
0 0 0 0 0 0 0 0 0 0 0 0 0 0 0 0 0 0 0 0 0 -0 -0 -0 0 0 0 0 -0 -0 0 0 0 0 0 0 0 0 0 0 0 0 0 0 0 0 0
0 0 0 0 0 0 0 0 0 0 0 0 0 0 0 0 0 0 0 0 0 -0 -0 -0 0 0 0 0 0 -0 0 0 0 0 0 0 0 0 0 0 0 0 0 0 0 0 0
0 0 0 0 0 0 0 0 0 0 0 0 0 0 0 0 0 0 0 0 0 -0 -0 0 -0 0 0 0 0 0 0 0 0 0 0 0 0 0 0 0 0 0 0 0 0 0 0
Wind_Speed_500mb
31 29 31 33 38 40 42 44 45 45 43 45 40 39 36 32 33 35 31 30 29 30 30 29 27 26 25 22 53 25 31 20 17 44 47 39 29 33 21 24 56 41 18 35 29 17 20
27 30 31 35 40 43 45 48 48 47 45 43 40 34 33 31 33 33 28 30 27 28 28 27 26 26 21 41 36 32 41 52 22 32 45 43 32 32 18 21 44 55 51 20 35 23 13
28 30 33 37 40 42 44 45 45 44 44 42 36 31 29 29 31 27 26 25 23 26 26 25 25 26 30 48 27 20 30 34 36 30 44 49 48 38 9 17 29 27 40 24 45 22 10
24 28 32 36 40 42 43 45 45 40 37 34 28 25 24 25 25 23 23 21 20 24 25 23 25 24 29 29 22 37 46 48 32 36 34 47 42 29 13 29 8 22 20 36 32 24 12
22 27 30 34 38 41 42 43 42 28 25 20 20 20 20 19 17 19 20 17 19 23 24 23 24 15 25 19 23 23 27 31 26 27 31 31 28 6 26 21 6 14 11 32 27 31 13
21 24 27 31 36 39 42 40 34 12 5 9 13 14 14 12 14 15 12 13 20 26 20 19 21 18 15 20 30 33 23 23 23 17 17 21 13 9 9 24 11 17 12 37 28 30 35
19 22 24 28 31 37 37 34 28 18 10 4 8 7 7 10 10 7 6 11 19 9 8 16 21 26 33 33 30 18 13 20 18 9 8 18 9 16 27 27 14 11 29 18 28 15 34
16 18 21 23 30 33 31 31 26 20 14 10 8 5 8 9 10 6 4 6 6 11 19 21 22 24 26 19 18 16 12 13 15 14 9 11 21 25 17 29 19 22 23 38 18 15 3
13 16 17 20 26 28 29 28 23 21 18 15 11 8 8 10 10 2 3 7 11 13 11 5 7 7 14 14 15 15 15 12 13 15 15 13 1 16 24 28 1 13 8 11 8 14 5
10 12 14 17 22 24 27 25 22 20 18 17 14 12 11 12 4 3 5 14 12 15 6 4 1 2 9 13 9 12 9 11 9 10 6 6 14 10 25 25 16 4 3 5 6 28 20
6 8 14 15 18 20 22 21 19 18 17 19 16 11 14 8 6 4 11 9 10 7 6 8 7 10 10 7 19 6 9 7 12 8 6 6 13 3 11 12 24 9 15 11 5 4 6
4 6 11 12 15 17 20 22 23 22 21 20 15 12 9 5 7 7 10 10 7 4 7 9 10 13 22 8 6 14 5 7 7 7 8 4 4 7 8 3 25 21 11 10 7 2 5
5 6 10 11 13 16 20 22 24 23 21 20 15 6 5 5 5 8 11 9 4 3 5 13 9 18 21 14 14 7 5 6 5 3 1 2 9 4 5 2 4 9 6 4 4 3 1
8 9 10 12 14 17 19 20 21 20 19 17 14 12 8 11 2 11 8 5 4 2 4 11 13 18 8 16 9 10 7 7 12 11 4 7 2 12 8 6 7 18 17 4 1 5 5
13 12 14 13 15 15 15 17 17 16 15 13 13 14 13 11 9 9 8 2 4 6 7 15 18 6 4 11 7 10 6 10 7 11 5 4 4 3 5 8 10 9 8 5 10 3 6
18 17 16 15 14 13 13 14 12 9 9 10 9 8 11 10 10 10 5 4 5 6 9 9 7 11 9 15 11 11 9 10 5 8 17 3 2 7 5 8 3 3 13 7 5 8 6
22 20 20 18 15 12 9 5 3 4 8 11 9 7 7 7 5 6 2 5 6 6 7 1 4 6 6 7 8 8 11 8 7 13 15 9 2 2 4 4 4 6 7 5 0 2 2
25 24 21 19 14 9 4 1 3 5 9 13 7 3 10 3 3 3 1 1 5 5 7 8 4 5 5 6 6 5 7 16 21 21 9 4 6 1 3 4 5 2 6 8 5 7 0
29 27 23 17 11 7 4 5 8 10 11 8 7 3 7 3 1 1 3 4 5 4 7 4 4 9 3 5 4 8 11 19 33 14 8 14 3 4 4 5 2 4 3 4 5 5 2
32 30 24 18 13 9 9 10 13 11 9 5 3 2 5 4 4 2 1 3 5 7 7 10 14 15 3 6 10 8 8 12 37 35 48 7 6 1 6 3 5 4 7 7 7 3 9
36 33 27 20 14 11 12 11 10 8 6 6 3 3 2 2 1 8 2 5 8 5 6 5 6 9 6 5 2 9 9 17 20 17 12 4 3 5 2 5 7 6 13 21 7 6 6
41 36 29 22 18 14 15 15 14 12 7 4 1 1 1 3 6 6 6 6 9 3 6 6 9 4 9 8 4 12 11 6 7 18 7 8 6 6 2 5 5 8 13 18 17 2 5
43 39 31 25 22 17 16 16 13 9 5 3 4 6 4 3 1 3 4 5 2 6 12 21 10 10 11 11 6 10 17 21 13 12 11 6 2 3 5 5 8 7 12 16 5 3 6
45 42 34 27 23 18 16 18 15 10 8 8 8 4 4 4 6 7 5 6 13 16 16 15 21 8 3 10 37 31 26 31 27 29 20 12 7 2 3 2 2 7 5 8 10 10 7
46 42 34 29 25 22 21 24 21 14 9 9 6 6 5 6 4 10 7 9 19 24 20 17 16 20 17 23 6 7 5 7 17 24 22 24 8 5 6 4 8 7 7 10 9 7 9
46 41 35 31 28 25 27 30 25 18 11 11 9 9 6 7 2 4 6 5 6 7 8 3 7 18 7 5 4 6 8 8 8 9 8 20 7 3 6 8 8 3 1 8 3 3 15
49 42 34 32 29 25 28 33 27 20 15 13 10 10 9 7 7 6 4 5 6 6 6 8 11 5 5 3 5 4 1 2 8 14 10 10 5 5 5 3 6 5 4 6 8 4 12
49 41 34 32 26 22 26 16 24 18 17 16 13 10 12 8 8 8 4 4 6 2 5 15 9 2 4 5 3 3 5 4 3 4 7 8 8 6 1 3 8 9 5 2 3 4 2
51 43 37 30 27 27 18 16 19 16 16 18 16 11 14 9 7 7 6 3 1 4 4 10 6 6 7 5 1 5 3 4 4 5 5 3 4 4 5 6 2 8 9 5 4 4 6
Wind_Direction_500mb
317 320 322 324 321 316 313 304 298 296 290 284 285 284 278 281 277 272 276 280 280 292 297 295 297 304 305 264 248 256 298 293 279 225 229 234 254 223 232 199 201 212 230 217 251 167 244
322 329 328 326 314 312 308 301 295 290 283 283 282 281 274 271 270 269 273 272 280 288 298 295 294 297 294 267 275 261 276 277 268 234 228 225 234 257 263 232 196 204 217 246 229 218 225
332 334 329 325 324 322 316 310 302 292 283 279 279 274 271 261 264 268 266 273 276 291 294 291 289 294 278 259 273 267 266 284 273 262 237 227 234 236 301 267 243 199 194 231 232 193 232
338 331 336 335 334 333 330 320 306 289 278 275 273 269 265 253 263 261 258 268 275 289 290 290 288 291 268 303 277 273 268 274 273 265 263 226 226 245 274 281 204 163 184 215 208 188 213
339 340 346 346 344 344 345 337 324 291 269 269 257 255 256 247 252 248 252 264 286 294 293 288 288 266 275 292 288 295 260 256 263 263 252 207 202 227 271 246 187 187 181 199 181 199 213
343 348 352 352 353 359 2 358 2 13 275 241 236 235 242 233 224 233 252 282 309 300 301 298 266 282 282 313 311 299 258 241 248 261 216 180 164 190 227 244 199 203 198 194 188 189 206
353 356 356 0 7 15 15 17 26 46 85 145 180 201 209 196 210 209 266 340 312 282 291 238 306 278 301 311 311 301 278 222 229 237 266 164 168 203 229 243 228 243 198 206 177 193 192
2 2 4 8 25 26 28 36 42 52 69 98 119 136 168 183 165 162 312 346 339 312 302 281 270 285 292 304 299 309 270 219 195 226 205 191 215 206 208 289 232 259 203 206 203 126 358
9 9 16 25 34 35 41 46 54 66 84 90 101 128 158 155 132 119 38 270 313 330 269 228 284 302 300 312 292 297 327 243 224 233 231 243 310 143 181 233 347 350 350 162 185 186 283
21 21 38 41 46 46 51 56 65 74 85 93 99 106 115 123 86 321 266 330 324 341 287 341 260 195 323 300 270 294 293 295 175 241 218 265 327 185 206 224 164 276 173 359 347 163 201
43 49 55 53 53 53 58 63 69 75 85 93 101 113 136 115 40 334 305 335 340 359 301 5 349 317 295 307 314 21 298 271 289 174 203 91 18 307 196 241 169 145 155 191 19 184 119
98 79 71 65 61 61 70 73 76 78 85 86 89 114 123 349 351 352 346 340 357 259 257 345 328 348 359 312 333 311 336 318 0 43 64 52 52 298 310 270 180 136 138 94 79 104 185
132 107 90 86 83 85 88 87 86 86 85 83 86 86 325 337 340 355 351 5 318 228 279 330 336 327 334 12 323 347 334 220 245 77 276 117 210 219 276 242 155 124 115 107 150 161 142
153 122 106 102 101 102 100 97 94 90 79 73 59 35 17 16 297 355 27 14 284 238 4 319 317 336 360 20 348 2 294 279 228 307 272 162 258 179 183 269 165 184 169 114 5 157 110
164 144 129 123 115 109 109 104 97 88 80 67 38 15 20 18 9 10 14 280 346 9 332 345 322 334 59 23 350 325 277 316 351 197 293 64 226 110 17 24 338 160 186 312 101 279 107
171 159 144 138 127 120 114 108 95 76 58 29 19 3 336 357 15 41 58 311 349 340 357 3 333 41 338 354 346 356 312 26 301 298 283 47 289 13 105 12 17 236 132 84 333 146 185
177 168 154 150 139 132 126 115 56 6 359 360 4 313 330 357 19 40 13 355 298 296 299 77 334 305 304 326 334 336 302 325 22 333 288 138 195 31 153 102 317 90 133 122 26 353 164
186 180 168 164 161 163 165 239 332 330 332 335 328 30 334 6 36 66 247 185 296 275 254 279 229 246 252 315 306 284 308 326 352 355 304 317 13 52 71 187 307 286 333 160 175 218 116
192 190 181 180 190 189 217 272 298 310 332 326 334 310 343 81 47 52 297 272 261 251 277 254 271 228 1 300 283 240 309 342 345 349 344 347 242 338 119 115 52 224 231 285 42 34 132
195 195 189 195 200 234 265 288 297 309 340 349 337 331 319 82 115 299 295 194 289 227 275 282 281 302 131 276 232 289 300 308 337 327 327 20 308 46 31 55 339 186 200 300 159 112 159
196 202 198 204 221 251 277 298 312 304 341 348 29 281 262 319 23 276 15 322 287 282 232 286 279 227 257 278 274 249 285 295 288 274 266 297 267 284 129 49 19 299 199 192 246 204 112
200 203 205 211 233 249 278 289 295 294 312 289 70 211 289 304 318 297 222 259 254 253 219 199 227 291 228 242 315 298 320 281 342 335 202 199 292 156 79 307 41 323 311 192 201 219 95
206 208 211 218 235 246 273 288 292 292 296 289 244 281 270 177 249 266 239 236 288 17 275 242 265 312 274 262 255 274 304 294 284 314 321 293 169 274 136 313 14 295 231 202 157 241 119
209 213 215 221 231 249 264 284 288 287 272 226 251 237 274 266 236 219 303 304 289 273 264 290 313 286 279 290 305 282 259 239 253 258 244 306 136 231 129 176 47 271 325 214 179 210 147
212 215 217 220 234 251 267 280 284 282 271 247 245 207 261 274 286 269 300 309 313 286 276 283 293 265 302 315 268 225 181 173 230 232 224 210 263 145 157 195 266 167 195 174 162 231 207
211 214 219 231 241 253 265 272 271 270 266 259 260 246 231 275 189 230 289 298 317 311 299 245 321 323 349 263 262 266 193 167 149 146 232 186 171 125 165 131 187 297 317 144 253 49 351
210 212 221 237 249 256 262 263 252 255 263 266 274 258 241 259 251 199 265 320 315 291 288 286 334 303 315 268 259 286 4 289 139 147 174 116 116 198 285 244 300 21 290 328 108 201 314
212 214 224 234 243 248 259 247 235 246 263 275 291 273 245 238 259 238 214 272 311 350 334 340 311 322 272 269 293 354 310 27 15 48 134 138 132 180 11 55 261 8 65 159 272 292 357
213 215 220 227 231 234 250 241 235 254 259 279 290 292 250 222 229 233 200 186 14 337 328 319 314 295 324 295 294 288 271 291 311 107 333 115 126 166 166 221 319 38 91 52 65 37 71
Wind_Speed_850mb
31 29 31 33 38 40 42 44 45 45 43 45 40 39 36 32 33 35 31 30 29 30 30 29 27 26 25 22 53 25 31 20 17 44 47 39 29 33 21 24 56 41 18 35 29 17 20
27 30 31 35 40 43 45 48 48 47 45 43 40 34 33 31 33 33 28 30 27 28 28 27 26 26 21 41 36 32 41 52 22 32 45 43 32 32 18 21 44 55 51 20 35 23 13
28 30 33 37 40 42 44 45 45 44 44 42 36 31 29 29 31 27 26 25 23 26 26 25 25 26 30 48 27 20 30 34 36 30 44 49 48 38 9 17 29 27 40 24 45 22 10
24 28 32 36 40 42 43 45 45 40 37 34 28 25 24 25 25 23 23 21 20 24 25 23 25 24 29 29 22 37 46 48 32 36 34 47 42 29 13 29 8 22 20 36 32 24 12
22 27 30 34 38 41 42 43 42 28 25 20 20 20 20 19 17 19 20 17 19 23 24 23 24 15 25 19 23 23 27 31 26 27 31 31 28 6 26 21 6 14 11 32 27 31 13
21 24 27 31 36 39 42 40 34 12 5 9 13 14 14 12 14 15 12 13 20 26 20 19 21 18 15 20 30 33 23 23 23 17 17 21 13 9 9 24 11 17 12 37 28 30 35
19 22 24 28 31 37 37 34 28 18 10 4 8 7 7 10 10 7 6 11 19 9 8 16 21 26 33 33 30 18 13 20 18 9 8 18 9 16 27 27 14 11 29 18 28 15 34
16 18 21 23 30 33 31 31 26 20 14 10 8 5 8 9 10 6 4 6 6 11 19 21 22 24 26 19 18 16 12 13 15 14 9 11 21 25 17 29 19 22 23 38 18 15 3
13 16 17 20 26 28 29 28 23 21 18 15 11 8 8 10 10 2 3 7 11 13 11 5 7 7 14 14 15 15 15 12 13 15 15 13 1 16 24 28 1 13 8 11 8 14 5
10 12 14 17 22 24 27 25 22 20 18 17 14 12 11 12 4 3 5 14 12 15 6 4 1 2 9 13 9 12 9 11 9 10 6 6 14 10 25 25 16 4 3 5 6 28 20
6 8 14 15 18 20 22 21 19 18 17 19 16 11 14 8 6 4 11 9 10 7 6 8 7 10 10 7 19 6 9 7 12 8 6 6 13 3 11 12 24 9 15 11 5 4 6
4 6 11 12 15 17 20 22 23 22 21 20 15 12 9 5 7 7 10 10 7 4 7 9 10 13 22 8 6 14 5 7 7 7 8 4 4 7 8 3 25 21 11 10 7 2 5
5 6 10 11 13 16 20 22 24 23 21 20 15 6 5 5 5 8 11 9 4 3 5 13 9 18 21 14 14 7 5 6 5 3 1 2 9 4 5 2 4 9 6 4 4 3 1
8 9 10 12 14 17 19 20 21 20 19 17 14 12 8 11 2 11 8 5 4 2 4 11 13 18 8 16 9 10 7 7 12 11 4 7 2 12 8 6 7 18 17 4 1 5 5
13 12 14 13 15 15 15 17 17 16 15 13 13 14 13 11 9 9 8 2 4 6 7 15 18 6 4 11 7 10 6 10 7 11 5 4 4 3 5 8 10 9 8 5 10 3 6
18 17 16 15 14 13 13 14 12 9 9 10 9 8 11 10 10 10 5 4 5 6 9 9 7 11 9 15 11 11 9 10 5 8 17 3 2 7 5 8 3 3 13 7 5 8 6
22 20 20 18 15 12 9 5 3 4 8 11 9 7 7 7 5 6 2 5 6 6 7 1 4 6 6 7 8 8 11 8 7 13 15 9 2 2 4 4 4 6 7 5 0 2 2
25 24 21 19 14 9 4 1 3 5 9 13 7 3 10 3 3 3 1 1 5 5 7 8 4 5 5 6 6 5 7 16 21 21 9 4 6 1 3 4 5 2 6 8 5 7 0
29 27 23 17 11 7 4 5 8 10 11 8 7 3 7 3 1 1 3 4 5 4 7 4 4 9 3 5 4 8 11 19 33 14 8 14 3 4 4 5 2 4 3 4 5 5 2
32 30 24 18 13 9 9 10 13 11 9 5 3 2 5 4 4 2 1 3 5 7 7 10 14 15 3 6 10 8 8 12 37 35 48 7 6 1 6 3 5 4 7 7 7 3 9
36 33 27 20 14 11 12 11 10 8 6 6 3 3 2 2 1 8 2 5 8 5 6 5 6 9 6 5 2 9 9 17 20 17 12 4 3 5 2 5 7 6 13 21 7 6 6
41 36 29 22 18 14 15 15 14 12 7 4 1 1 1 3 6 6 6 6 9 3 6 6 9 4 9 8 4 12 11 6 7 18 7 8 6 6 2 5 5 8 13 18 17 2 5
43 39 31 25 22 17 16 16 13 9 5 3 4 6 4 3 1 3 4 5 2 6 12 21 10 10 11 11 6 10 17 21 13 12 11 6 2 3 5 5 8 7 12 16 5 3 6
45 42 34 27 23 18 16 18 15 10 8 8 8 4 4 4 6 7 5 6 13 16 16 15 21 8 3 10 37 31 26 31 27 29 20 12 7 2 3 2 2 7 5 8 10 10 7
46 42 34 29 25 22 21 24 21 14 9 9 6 6 5 6 4 10 7 9 19 24 20 17 16 20 17 23 6 7 5 7 17 24 22 24 8 5 6 4 8 7 7 10 9 7 9
46 41 35 31 28 25 27 30 25 18 11 11 9 9 6 7 2 4 6 5 6 7 8 3 7 18 7 5 4 6 8 8 8 9 8 20 7 3 6 8 8 3 1 8 3 3 15
49 42 34 32 29 25 28 33 27 20 15 13 10 10 9 7 7 6 4 5 6 6 6 8 11 5 5 3 5 4 1 2 8 14 10 10 5 5 5 3 6 5 4 6 8 4 12
49 41 34 32 26 22 26 16 24 18 17 16 13 10 12 8 8 8 4 4 6 2 5 15 9 2 4 5 3 3 5 4 3 4 7 8 8 6 1 3 8 9 5 2 3 4 2
51 43 37 30 27 27 18 16 19 16 16 18 16 11 14 9 7 7 6 3 1 4 4 10 6 6 7 5 1 5 3 4 4 5 5 3 4 4 5 6 2 8 9 5 4 4 6
Wind_Direction_850mb
317 320 322 324 321 316 313 304 298 296 290 284 285 284 278 281 277 272 276 280 280 292 297 295 297 304 305 264 248 256 298 293 279 225 229 234 254 223 232 199 201 212 230 217 251 167 244
322 329 328 326 314 312 308 301 295 290 283 283 282 281 274 271 270 269 273 272 280 288 298 295 294 297 294 267 275 261 276 277 268 234 228 225 234 257 263 232 196 204 217 246 229 218 225
332 334 329 325 324 322 316 310 302 292 283 279 279 274 271 261 264 268 266 273 276 291 294 291 289 294 278 259 273 267 266 284 273 262 237 227 234 236 301 267 243 199 194 231 232 193 232
338 331 336 335 334 333 330 320 306 289 278 275 273 269 265 253 263 261 258 268 275 289 290 290 288 291 268 303 277 273 268 274 273 265 263 226 226 245 274 281 204 163 184 215 208 188 213
339 340 346 346 344 344 345 337 324 291 269 269 257 255 256 247 252 248 252 264 286 294 293 288 288 266 275 292 288 295 260 256 263 263 252 207 202 227 271 246 187 187 181 199 181 199 213
343 348 352 352 353 359 2 358 2 13 275 241 236 235 242 233 224 233 252 282 309 300 301 298 266 282 282 313 311 299 258 241 248 261 216 180 164 190 227 244 199 203 198 194 188 189 206
353 356 356 0 7 15 15 17 26 46 85 145 180 201 209 196 210 209 266 340 312 282 291 238 306 278 301 311 311 301 278 222 229 237 266 164 168 203 229 243 228 243 198 206 177 193 192
2 2 4 8 25 26 28 36 42 52 69 98 119 136 168 183 165 162 312 346 339 312 302 281 270 285 292 304 299 309 270 219 195 226 205 191 215 206 208 289 232 259 203 206 203 126 358
9 9 16 25 34 35 41 46 54 66 84 90 101 128 158 155 132 119 38 270 313 330 269 228 284 302 300 312 292 297 327 243 224 233 231 243 310 143 181 233 347 350 350 162 185 186 283
21 21 38 41 46 46 51 56 65 74 85 93 99 106 115 123 86 321 266 330 324 341 287 341 260 195 323 300 270 294 293 295 175 241 218 265 327 185 206 224 164 276 173 359 347 163 201
43 49 55 53 53 53 58 63 69 75 85 93 101 113 136 115 40 334 305 335 340 359 301 5 349 317 295 307 314 21 298 271 289 174 203 91 18 307 196 241 169 145 155 191 19 184 119
98 79 71 65 61 61 70 73 76 78 85 86 89 114 123 349 351 352 346 340 357 259 257 345 328 348 359 312 333 311 336 318 0 43 64 52 52 298 310 270 180 136 138 94 79 104 185
132 107 90 86 83 85 88 87 86 86 85 83 86 86 325 337 340 355 351 5 318 228 279 330 336 327 334 12 323 347 334 220 245 77 276 117 210 219 276 242 155 124 115 107 150 161 142
153 122 106 102 101 102 100 97 94 90 79 73 59 35 17 16 297 355 27 14 284 238 4 319 317 336 360 20 348 2 294 279 228 307 272 162 258 179 183 269 165 184 169 114 5 157 110
164 144 129 123 115 109 109 104 97 88 80 67 38 15 20 18 9 10 14 280 346 9 332 345 322 334 59 23 350 325 277 316 351 197 293 64 226 110 17 24 338 160 186 312 101 279 107
171 159 144 138 127 120 114 108 95 76 58 29 19 3 336 357 15 41 58 311 349 340 357 3 333 41 338 354 346 356 312 26 301 298 283 47 289 13 105 12 17 236 132 84 333 146 185
177 168 154 150 139 132 126 115 56 6 359 360 4 313 330 357 19 40 13 355 298 296 299 77 334 305 304 326 334 336 302 325 22 333 288 138 195 31 153 102 317 90 133 122 26 353 164
186 180 168 164 161 163 165 239 332 330 332 335 328 30 334 6 36 66 247 185 296 275 254 279 229 246 252 315 306 284 308 326 352 355 304 317 13 52 71 187 307 286 333 160 175 218 116
192 190 181 180 190 189 217 272 298 310 332 326 334 310 343 81 47 52 297 272 261 251 277 254 271 228 1 300 283 240 309 342 345 349 344 347 242 338 119 115 52 224 231 285 42 34 132
195 195 189 195 200 234 265 288 297 309 340 349 337 331 319 82 115 299 295 194 289 227 275 282 281 302 131 276 232 289 300 308 337 327 327 20 308 46 31 55 339 186 200 300 159 112 159
196 202 198 204 221 251 277 298 312 304 341 348 29 281 262 319 23 276 15 322 287 282 232 286 279 227 257 278 274 249 285 295 288 274 266 297 267 284 129 49 19 299 199 192 246 204 112
200 203 205 211 233 249 278 289 295 294 312 289 70 211 289 304 318 297 222 259 254 253 219 199 227 291 228 242 315 298 320 281 342 335 202 199 292 156 79 307 41 323 311 192 201 219 95
206 208 211 218 235 246 273 288 292 292 296 289 244 281 270 177 249 266 239 236 288 17 275 242 265 312 274 262 255 274 304 294 284 314 321 293 169 274 136 313 14 295 231 202 157 241 119
209 213 215 221 231 249 264 284 288 287 272 226 251 237 274 266 236 219 303 304 289 273 264 290 313 286 279 290 305 282 259 239 253 258 244 306 136 231 129 176 47 271 325 214 179 210 147
212 215 217 220 234 251 267 280 284 282 271 247 245 207 261 274 286 269 300 309 313 286 276 283 293 265 302 315 268 225 181 173 230 232 224 210 263 145 157 195 266 167 195 174 162 231 207
211 214 219 231 241 253 265 272 271 270 266 259 260 246 231 275 189 230 289 298 317 311 299 245 321 323 349 263 262 266 193 167 149 146 232 186 171 125 165 131 187 297 317 144 253 49 351
210 212 221 237 249 256 262 263 252 255 263 266 274 258 241 259 251 199 265 320 315 291 288 286 334 303 315 268 259 286 4 289 139 147 174 116 116 198 285 244 300 21 290 328 108 201 314
212 214 224 234 243 248 259 247 235 246 263 275 291 273 245 238 259 238 214 272 311 350 334 340 311 322 272 269 293 354 310 27 15 48 134 138 132 180 11 55 261 8 65 159 272 292 357
213 215 220 227 231 234 250 241 235 254 259 279 290 292 250 222 229 233 200 186 14 337 328 319 314 295 324 295 294 288 271 291 311 107 333 115 126 166 166 221 319 38 91 52 65 37 71